Lapse_Rate
6.4 6.5 6.6 6.4 6.1 5.8 5.5 5.2 5.2 5.2 5.2 5.2 5.1 4.9 4.8 4.5 4.4 4.6 4.6 4.5 4.5 4.8 4.9 4.9 4.9 4.8 4.7 4.7 4.8 4.7 4.7 4.7 4.7 4.7 4.7 4.7 4.8 4.9 5.0 5.1 5.2 5.2 5.2
6.5 6.7 6.5 6.4 6.2 5.8 5.5 5.2 5.2 5.1 5.2 5.2 5.1 5.1 4.9 4.6 4.4 4.6 4.5 4.4 4.5 4.7 4.6 4.7 4.8 4.8 4.8 4.8 4.7 4.7 4.6 4.5 4.5 4.6 4.7 4.7 4.8 5.0 5.1 5.1 5.2 5.1 5.1
6.6 6.7 6.6 6.4 6.4 6.1 5.6 5.4 5.3 5.2 5.3 5.4 5.3 5.3 4.9 4.6 4.3 4.4 4.4 4.4 4.7 4.6 4.5 4.5 4.6 4.6 4.7 4.7 4.7 4.7 4.6 4.7 4.6 4.6 4.7 4.9 5.0 5.1 5.2 5.2 5.2 5.2 5.2
6.8 6.9 6.8 6.4 6.4 6.3 5.7 5.5 5.4 5.5 5.3 5.6 5.5 5.2 4.9 4.7 4.5 4.3 4.3 4.6 4.7 4.6 4.6 4.5 4.5 4.4 4.4 4.6 4.6 4.6 4.6 4.7 4.7 4.7 5.0 5.1 5.2 5.3 5.2 5.2 5.2 5.2 5.2
5.9 6.7 6.7 6.3 6.3 6.2 5.8 5.7 5.4 5.5 5.4 5.5 5.6 5.0 4.9 4.7 4.5 4.5 4.5 4.7 4.6 4.6 4.5 4.5 4.5 4.5 4.5 4.4 4.4 4.5 4.6 4.6 4.8 4.8 4.9 5.0 5.0 5.0 5.1 5.1 5.2 5.2 5.2
7.1 6.5 6.5 6.3 5.9 6.0 5.9 5.7 5.6 5.4 5.2 5.2 5.2 5.0 4.9 4.6 4.5 4.6 4.7 4.7 4.5 4.5 4.5 4.5 4.4 4.4 4.4 4.5 4.5 4.5 4.6 4.7 4.6 4.8 4.8 4.9 4.9 5.0 5.0 5.1 5.2 5.2 5.3
6.5 6.2 5.7 5.7 5.7 5.7 5.9 5.8 5.7 5.3 5.0 5.1 5.2 5.0 4.9 4.6 4.5 4.6 4.7 4.7 4.6 4.5 4.4 4.4 4.4 4.4 4.4 4.4 4.6 4.6 4.6 4.8 4.9 5.0 5.0 4.9 4.9 5.0 5.1 5.2 5.2 5.3 5.4
5.9 6.1 5.8 5.7 5.7 5.6 5.7 5.9 5.7 5.4 5.0 5.2 5.2 5.0 4.7 4.6 4.6 4.7 4.7 4.7 4.7 4.6 4.4 4.4 4.3 4.2 4.3 4.4 4.5 4.7 4.7 4.8 4.9 5.0 5.0 5.0 5.1 5.1 5.2 5.3 5.3 5.4 5.4
5.8 5.6 5.8 5.6 5.6 5.6 5.6 5.8 5.6 5.5 5.1 5.1 5.2 5.0 4.6 4.6 4.7 4.8 4.6 4.6 4.6 4.5 4.5 4.3 4.2 4.3 4.3 4.4 4.5 4.6 4.8 4.9 4.9 4.9 5.0 5.1 5.2 5.3 5.4 5.3 5.3 5.3 5.3
5.6 5.4 5.2 5.3 5.3 5.3 5.5 5.8 5.8 5.6 5.2 5.1 5.2 4.8 4.7 5.0 4.9 4.8 4.6 4.5 4.5 4.5 4.4 4.3 4.3 4.3 4.3 4.4 4.5 4.6 4.7 4.8 4.9 5.0 5.1 5.1 5.2 5.2 5.4 5.4 5.4 5.6 5.6
5.6 5.5 5.4 5.5 5.4 5.3 5.4 5.7 5.8 5.7 5.5 5.2 5.1 4.9 5.1 5.0 4.8 4.6 4.5 4.5 4.5 4.5 4.4 4.4 4.4 4.4 4.5 4.4 4.6 4.6 4.7 4.8 4.8 5.0 5.2 5.2 5.3 5.3 5.4 5.5 5.6 5.6 5.7
4.8 5.2 5.5 5.5 5.5 5.3 5.4 5.5 5.7 5.7 5.6 5.3 5.2 5.1 5.2 4.9 4.7 4.6 4.6 4.6 4.5 4.5 4.6 4.6 4.5 4.6 4.6 4.6 4.6 4.7 4.8 4.9 4.9 5.1 5.2 5.2 5.3 5.4 5.4 5.5 5.6 5.7 5.8
4.1 4.5 5.2 5.3 5.0 5.3 5.5 5.4 5.6 5.7 5.5 5.4 5.3 5.2 5.1 5.0 4.9 4.7 4.6 4.6 4.6 4.6 4.6 4.6 4.6 4.7 4.7 4.7 4.8 4.9 5.0 5.1 5.1 5.1 5.2 5.3 5.4 5.5 5.5 5.6 5.7 5.7 5.8
4.4 4.3 4.3 5.0 5.2 5.3 5.4 5.3 5.4 5.7 5.6 5.5 5.5 5.3 5.3 5.1 4.9 4.8 4.8 4.8 4.7 4.7 4.7 4.8 4.8 4.8 4.8 4.9 4.9 4.9 5.0 5.0 5.1 5.2 5.3 5.3 5.4 5.6 5.6 5.6 5.7 5.8 5.8
5.0 4.8 4.2 4.3 4.9 5.3 5.3 5.3 5.3 5.6 5.8 5.8 5.6 5.5 5.4 5.2 5.0 4.9 4.8 4.8 4.8 4.9 4.9 4.9 4.9 5.0 5.0 5.1 5.1 5.0 5.1 5.1 5.1 5.3 5.3 5.4 5.4 5.6 5.7 5.7 5.7 5.9 5.8
5.2 5.3 4.7 4.9 5.2 5.1 5.2 5.5 5.3 5.4 5.4 5.6 5.6 5.5 5.3 5.1 5.0 4.9 4.9 5.0 5.0 5.0 5.0 5.0 4.9 5.1 5.1 5.1 5.2 5.2 5.2 5.2 5.2 5.4 5.5 5.7 5.7 5.8 5.8 5.9 6.0 5.9 5.9
5.4 5.0 4.9 5.0 4.9 5.4 4.8 5.4 5.3 5.3 5.4 5.5 5.6 5.5 5.4 5.3 5.1 5.0 5.0 5.2 5.1 5.1 5.2 5.5 5.1 5.2 5.2 5.3 5.3 5.3 5.4 5.4 5.6 5.5 5.6 5.7 5.9 5.8 5.8 5.9 6.0 5.9 5.8
5.2 5.2 4.9 5.0 4.3 4.8 4.7 5.0 5.4 5.3 5.2 5.4 5.5 5.5 5.5 5.4 5.4 5.3 5.3 5.4 5.3 5.3 5.8 5.4 5.2 5.3 5.3 5.3 5.4 5.3 5.4 5.5 5.6 5.6 5.6 5.7 5.7 5.7 6.1 6.1 5.9 6.0 5.9
5.7 5.3 6.3 5.0 4.1 4.3 4.9 5.0 5.2 5.4 5.4 5.5 5.4 5.6 5.7 5.5 5.4 5.5 5.6 5.8 5.6 5.8 6.0 5.4 5.4 5.5 5.5 5.4 5.3 5.4 5.4 5.5 5.5 5.7 5.6 5.6 5.7 5.8 5.6 5.9 5.8 5.9 5.9
5.8 5.6 5.6 5.3 5.3 4.9 4.6 4.8 5.1 5.4 5.8 5.8 5.8 5.8 5.6 5.5 5.6 5.6 5.8 6.1 6.0 6.5 5.9 6.0 5.6 5.5 5.6 5.6 5.4 5.6 5.6 5.5 5.6 5.7 5.6 5.7 5.6 5.7 5.7 5.6 5.7 5.8 6.0
5.4 5.6 5.0 5.1 5.1 4.9 5.0 5.0 5.0 5.4 5.4 5.6 5.9 5.9 6.0 6.0 6.3 6.5 6.4 6.3 6.1 6.0 6.3 6.1 6.1 5.8 5.9 6.0 5.7 5.9 5.6 5.5 5.6 5.6 5.7 5.6 5.7 5.5 5.5 5.6 5.7 6.1 6.0
5.7 5.7 5.4 5.0 5.0 4.7 4.9 5.1 5.0 4.6 5.2 5.4 5.4 5.5 5.3 5.6 6.1 5.7 5.4 6.0 5.9 5.8 5.9 5.8 5.8 5.9 6.2 5.9 5.9 5.5 5.3 5.6 5.8 5.6 5.7 5.7 5.7 5.7 5.8 5.9 5.9 5.9 6.0
5.4 5.1 5.0 5.0 5.0 4.6 5.1 5.0 4.9 4.8 4.9 5.1 5.3 5.3 5.7 5.6 6.0 5.8 5.4 5.5 5.9 5.9 5.6 5.6 5.4 5.4 5.9 5.8 5.5 5.4 5.5 5.5 5.1 5.7 5.4 5.8 5.7 5.7 6.0 6.0 6.0 5.9 5.7
5.0 5.0 5.2 5.3 5.2 4.9 5.1 5.1 5.2 5.0 5.1 5.2 5.1 5.1 5.2 5.1 5.3 5.0 5.0 5.4 5.3 5.5 5.4 5.4 4.5 5.7 5.4 5.4 5.4 5.2 5.3 5.5 5.4 5.3 5.9 5.8 5.5 5.5 5.8 6.1 5.8 5.6 5.5
5.1 5.1 4.8 4.9 5.0 5.3 5.4 4.9 5.4 5.3 5.5 4.9 5.1 5.1 5.1 5.2 5.1 5.4 5.3 5.6 5.7 5.3 5.3 5.6 5.0 4.9 5.2 5.0 5.2 5.1 5.0 5.1 5.1 5.2 4.8 5.0 6.0 5.3 5.4 5.8 5.7 5.6 5.6
5.6 5.4 5.5 5.6 5.6 5.5 5.5 5.3 5.4 5.1 5.2 4.9 5.0 4.9 5.3 5.3 5.7 5.3 5.0 5.3 5.1 5.3 5.3 5.3 5.2 5.1 4.7 5.1 5.1 5.4 5.3 5.1 5.1 5.1 5.2 5.2 5.0 5.1 5.6 5.4 5.4 5.2 5.3
Wind_Speed
13 22 21 21 20 17 15 14 13 12 13 13 16 16 17 19 20 20 19 19 17 17 17 16 15 16 15 19 19 17 16 16 15 15 16 16 15 14 15 20 17 17 18
15 23 22 22 21 18 16 14 13 13 13 15 17 18 18 20 21 20 19 18 17 17 17 16 16 15 14 18 16 16 15 14 13 14 19 18 15 15 14 15 16 14 14
15 22 23 21 20 18 17 15 13 12 14 15 18 20 20 21 21 20 19 19 18 17 16 17 16 15 15 17 15 15 14 11 6 8 6 15 15 14 14 14 13 13 13
15 20 23 20 20 18 16 16 14 11 14 16 19 21 22 22 21 19 19 18 16 18 17 15 14 13 12 15 14 13 12 7 1 4 8 13 14 13 13 14 14 13 13
9 17 20 20 19 18 16 15 13 10 11 16 18 20 21 22 21 20 19 16 16 16 15 13 13 13 13 13 12 12 10 4 1 2 10 11 13 13 13 12 13 13 13
8 12 24 21 19 17 17 15 12 9 8 19 18 20 23 22 20 19 17 17 16 15 13 12 12 15 12 12 11 9 6 3 6 11 10 13 13 11 11 12 12 12 12
10 12 19 20 18 17 18 16 13 10 9 14 21 23 23 22 20 19 16 19 17 14 13 12 11 12 12 12 11 8 3 2 2 7 7 12 10 10 10 10 11 11 11
10 12 17 17 18 16 17 16 14 12 9 12 19 22 23 21 18 17 14 16 16 14 13 12 12 11 9 9 9 8 4 4 4 6 6 12 8 7 8 7 8 9 8
16 5 11 16 15 15 16 17 14 13 12 13 14 18 20 21 15 16 15 15 14 13 12 11 10 10 8 8 6 5 3 5 7 6 6 11 6 5 4 4 5 6 7
10 14 3 11 15 17 16 15 16 14 13 14 17 19 21 19 16 15 14 13 13 12 11 10 9 8 8 6 5 4 3 5 3 4 3 9 4 3 2 2 3 3 4
12 11 13 6 11 17 16 16 15 13 14 18 18 20 19 14 15 15 13 13 11 10 10 9 8 7 7 5 5 4 5 8 5 3 5 7 3 2 2 4 4 3 3
7 16 10 12 9 11 17 18 17 16 16 17 16 16 14 16 15 15 15 13 10 10 9 9 8 7 8 9 7 6 9 4 3 3 8 7 3 3 3 3 4 4 3
6 8 6 11 24 14 14 15 13 15 14 14 19 18 17 16 13 12 12 11 11 11 10 9 8 9 11 6 7 9 4 4 5 4 8 6 5 6 6 6 6 6 7
12 10 6 13 17 18 13 9 11 9 13 11 15 17 12 8 9 10 9 11 11 12 10 11 10 11 7 7 8 7 6 6 5 3 11 9 6 6 7 9 8 8 8
13 12 9 8 17 13 13 10 9 7 9 12 14 14 13 8 6 8 9 9 9 10 8 8 8 8 9 9 8 7 6 7 7 6 4 13 9 8 8 10 10 10 9
13 12 8 11 7 16 11 15 10 9 9 14 13 13 15 11 7 6 5 6 7 8 8 9 8 6 6 7 7 9 7 7 7 5 6 8 9 7 7 9 10 11 10
13 13 14 5 4 14 9 7 10 9 11 6 12 14 12 10 10 8 5 5 7 8 10 9 9 8 6 6 8 7 8 9 7 8 7 7 7 11 9 8 7 8 6
12 12 7 4 4 5 6 3 5 6 10 9 7 11 12 12 11 10 5 5 8 9 8 6 6 6 6 7 7 7 5 6 7 7 6 5 5 7 9 11 5 4 6
11 11 7 9 8 8 7 7 6 7 5 8 10 10 12 12 12 8 5 5 9 6 6 6 6 6 6 6 7 5 1 2 5 7 6 7 6 5 7 6 2 2 4
11 11 10 9 9 6 4 4 6 5 6 9 6 7 12 12 13 9 6 5 6 5 6 6 7 7 7 7 4 3 1 4 7 3 5 6 4 3 4 5 6 7 4
8 11 10 10 9 5 4 5 4 7 7 5 5 8 8 8 7 6 3 3 5 4 8 8 8 9 7 5 3 4 6 9 8 2 2 3 1 1 1 3 3 10 8
2 6 6 5 4 4 3 5 2 2 2 4 3 2 2 4 3 3 5 5 5 3 9 7 9 8 7 7 6 4 4 6 4 3 2 2 2 2 3 3 4 7 10
5 3 7 6 2 3 4 1 0 1 2 3 2 2 3 3 2 4 5 4 6 6 5 7 11 12 8 7 10 4 4 4 4 5 4 2 4 3 3 4 4 5 6
3 2 2 4 6 8 8 5 5 4 3 3 3 2 0 1 1 1 5 7 8 6 7 8 11 12 11 8 4 4 6 3 1 2 3 4 2 4 4 4 4 6 6
1 5 6 10 11 12 13 11 6 7 4 1 1 5 4 5 5 5 4 7 7 6 5 7 5 2 2 2 1 1 2 3 2 2 4 3 3 5 4 2 4 5 5
1 4 5 6 9 9 12 15 16 15 8 7 10 5 5 4 5 8 9 6 10 6 4 5 6 4 4 3 3 3 1 2 1 2 3 5 3 2 3 2 3 3 4
Wind_Direction
143 145 159 155 155 157 158 158 159 160 164 157 152 149 142 137 134 131 129 126 127 127 127 127 121 109 101 94 91 87 85 84 83 81 74 69 69 63 53 47 62 68 58
151 152 160 159 158 160 162 161 159 161 164 167 159 154 150 143 138 134 134 132 134 133 130 126 121 119 113 101 96 91 90 93 100 110 104 85 68 66 62 55 51 61 62
164 154 164 163 156 160 163 157 155 164 169 171 163 156 153 145 141 139 138 139 140 133 123 123 126 121 117 106 97 95 95 103 125 160 176 85 77 70 69 68 65 65 62
168 146 169 163 155 160 159 158 160 157 171 176 167 160 154 148 142 142 142 142 141 132 126 127 123 122 118 110 105 98 101 108 118 283 106 89 82 70 70 68 65 59 68
127 156 150 161 154 160 160 160 161 159 171 178 171 160 154 146 143 143 144 142 141 123 122 130 134 131 127 113 108 103 105 123 241 54 89 87 87 72 63 59 68 66 59
131 161 145 159 154 162 157 157 157 156 155 177 168 160 155 141 143 144 143 140 124 131 130 130 126 138 130 125 116 106 118 195 277 94 98 75 68 77 72 67 66 63 62
163 153 159 156 158 164 155 153 153 152 137 157 163 156 142 136 142 140 129 129 131 135 133 128 120 125 134 133 129 122 130 281 249 101 90 90 88 78 72 69 68 68 65
171 166 164 164 167 162 155 148 149 149 133 138 153 147 134 130 143 147 133 133 143 141 138 135 130 128 131 136 135 130 151 255 121 104 102 94 98 91 77 72 70 72 74
7 133 157 171 170 162 154 148 151 150 143 123 142 138 125 128 141 146 153 155 152 148 144 140 134 132 134 131 134 141 174 269 286 103 129 126 131 116 103 88 83 79 75
6 14 193 167 176 175 168 154 153 153 145 129 127 125 124 127 144 150 156 157 153 151 147 144 140 138 133 131 134 154 186 237 157 140 133 104 118 145 150 151 135 101 92
352 2 343 189 202 182 179 165 153 151 149 136 135 135 132 136 158 154 168 151 144 146 150 149 145 144 145 150 162 184 210 234 160 160 124 132 162 187 153 164 178 164 128
314 297 320 338 235 209 173 167 165 161 168 173 163 158 160 162 169 177 139 148 145 149 151 156 160 170 195 183 184 206 235 173 179 176 110 149 199 232 230 203 206 212 203
198 254 292 308 303 229 158 184 170 165 171 172 170 173 179 163 147 159 153 165 169 177 177 177 181 202 210 207 182 211 216 215 201 179 121 176 214 236 248 245 237 240 227
180 212 241 281 314 236 155 177 174 174 172 167 165 178 167 163 165 179 161 176 180 177 198 192 194 205 211 219 221 228 202 214 223 181 156 181 218 248 266 271 262 256 257
183 206 201 248 302 228 185 166 173 196 163 174 168 171 162 159 174 174 181 182 191 185 201 204 219 205 212 211 217 224 219 219 220 212 234 179 207 236 255 267 271 256 255
184 171 200 240 298 289 190 164 165 170 179 161 165 175 174 169 173 188 175 186 197 197 212 212 214 219 217 217 218 218 225 228 250 241 247 182 187 211 242 267 279 285 251
182 178 199 179 347 291 160 174 167 168 167 179 163 170 170 164 177 178 188 188 203 196 223 214 229 224 226 223 227 227 213 238 214 230 241 259 194 199 210 226 272 311 285
169 172 175 105 17 301 127 173 159 168 167 168 177 168 182 182 184 186 198 207 199 208 214 220 219 214 233 230 223 230 229 231 242 258 262 274 285 298 202 222 222 289 308
170 173 159 138 157 273 194 171 171 170 166 179 185 172 192 194 201 207 213 218 212 210 211 224 217 221 218 229 231 230 215 253 260 243 239 265 294 284 283 165 199 260 230
178 175 156 165 187 204 271 184 187 169 173 178 180 181 187 202 200 207 226 233 223 204 223 215 230 221 232 222 208 233 243 254 266 253 272 310 296 320 284 288 146 116 144
149 174 171 178 183 171 244 209 201 198 179 185 179 188 186 204 206 208 219 286 284 266 221 230 222 231 219 234 157 210 234 232 238 285 249 254 247 305 267 233 227 131 107
183 175 172 191 159 167 265 204 107 128 169 183 178 179 223 248 229 252 222 220 233 295 302 300 229 224 216 210 206 225 219 232 171 200 176 269 262 178 177 195 192 139 144
274 271 242 183 180 254 247 1 118 209 157 171 164 115 33 326 264 219 221 244 222 226 224 268 294 242 219 208 219 222 204 221 128 170 190 222 228 228 185 169 180 166 172
222 177 283 264 231 250 226 213 234 245 242 217 175 166 269 318 258 324 273 238 235 215 211 218 239 277 242 217 193 228 301 352 177 236 163 199 226 248 209 190 185 186 191
234 233 216 234 230 231 223 227 227 247 234 227 160 218 202 209 229 209 187 267 243 216 200 215 140 74 4 331 114 106 54 46 354 250 269 197 175 235 250 242 200 197 198
92 168 206 222 245 235 226 213 219 221 225 217 237 202 213 225 234 225 183 202 239 200 164 141 114 170 125 85 91 52 18 86 229 229 237 251 259 251 184 180 248 216 174